Helena, MT

5:54 AM MST on December 08, 2016 (GMT -0700)
Helena Regional

Weather History for KHLN - November, 2013

Change the Weather History Date:

Friday, November 1, 2013

  Actual Average Record
Temperature  
Mean Temperature 43 °F 39 °F  
Max Temperature 55 °F 51 °F 70 °F (1953)
Min Temperature 30 °F 28 °F -9 °F (1991)
Degree Days  
Heating Degree Days 22 26  
Month to date heating degree days 22 26  
Since 1 July heating degree days 874 934  
Cooling Degree Days 0 0  
Month to date cooling degree days 0 0  
Year to date cooling degree days 589 406  
Moisture  
Dew Point 27 °F    
Average Humidity 54    
Maximum Humidity 75    
Minimum Humidity 32    
Precipitation  
Precipitation 0.00 in 0.01 in 0.27 in (1948)
Month to date precipitation 0.00 0.01  
Year to date precipitation 10.14 10.34  
Snow  
Snow 0.00 in 0.10 in 3.80 in (1993)
Month to date snowfall 0.0 0.1  
Since 1 July snowfall 2.0 4.1  
Since 1 September snowfall 2.0 3.8  
Snow Depth 0.00 in    
Sea Level Pressure  
Sea Level Pressure 30.20 in    
Wind  
Wind Speed 8 mph (WSW)    
Max Wind Speed 22 mph    
Max Gust Speed 29 mph    
Visibility 10 miles    
Events      
T = Trace of Precipitation, MM = Missing Value Source: NWS Daily Summary

Daily Weather History Graph

Daily Weather History Graph

Search for Another Location

Airport or City:

Trip Planner

Search our weather history database for the weather conditions in past years. The results will help you decide how hot, cold, wet, or windy it might be!

Date:

Astronomy

Nov. 01, 2013 Rise Set
Actual Time 8:10 AM MDT 6:12 PM MDT
Civil Twilight 7:38 AM MDT 6:43 PM MDT
Nautical Twilight 7:02 AM MDT 7:19 PM MDT
Astronomical Twilight 6:27 AM MDT 7:54 PM MDT
Moon 6:00 AM MDT (11/1) 5:11 PM MDT (11/1)
Length of Visible Light 11h 05m
Length of Day
10h 01m
Waning Crescent, 4% of the Moon is Illuminated
Nov 1
Waning Crescent
Nov 3
New
Nov 9
First Quarter
Nov 17
Full
Nov 25
Last Quarter

Hourly Weather History & Observations

Time (MDT) Temp. Windchill Dew Point Humidity Pressure Visibility Wind Dir Wind Speed Gust Speed Precip Events Conditions
12:53 AM 43.0 °F 36.8 °F 27.0 °F 53% 30.12 in 10.0 mi WNW 11.5 mph 25.3 mph N/A   Partly Cloudy
1:53 AM 43.0 °F 36.0 °F 27.0 °F 53% 30.14 in 10.0 mi West 13.8 mph 21.9 mph N/A   Partly Cloudy
2:53 AM 42.1 °F 35.2 °F 28.0 °F 58% 30.16 in 10.0 mi West 12.7 mph - N/A   Clear
3:53 AM 39.9 °F 32.9 °F 28.0 °F 63% 30.17 in 10.0 mi WSW 11.5 mph - N/A   Clear
4:53 AM 39.9 °F 36.7 °F 28.0 °F 63% 30.19 in 10.0 mi Variable 4.6 mph - N/A   Clear
5:53 AM 39.0 °F 33.4 °F 28.0 °F 65% 30.20 in 10.0 mi West 8.1 mph - N/A   Clear
6:53 AM 43.0 °F 35.4 °F 28.9 °F 58% 30.21 in 10.0 mi West 16.1 mph 21.9 mph N/A   Scattered Clouds
7:53 AM 33.1 °F - 26.1 °F 75% 30.25 in 10.0 mi Calm Calm - N/A   Scattered Clouds
8:53 AM 34.0 °F - 27.0 °F 75% 30.27 in 10.0 mi Calm Calm - N/A   Overcast
9:53 AM 39.0 °F - 28.9 °F 67% 30.27 in 10.0 mi Calm Calm - N/A   Scattered Clouds
10:53 AM 48.9 °F - 28.9 °F 46% 30.23 in 10.0 mi WSW 3.5 mph - N/A   Mostly Cloudy
11:53 AM 48.9 °F - 26.1 °F 41% 30.23 in 10.0 mi West 8.1 mph - N/A   Overcast
12:53 PM 51.1 °F - 26.1 °F 38% 30.22 in 10.0 mi West 17.3 mph 20.7 mph N/A   Overcast
1:53 PM 52.0 °F - 25.0 °F 35% 30.19 in 10.0 mi West 11.5 mph 23.0 mph N/A   Mostly Cloudy
2:53 PM 52.0 °F - 25.0 °F 35% 30.17 in 10.0 mi West 6.9 mph - N/A   Overcast
3:53 PM 54.0 °F - 25.0 °F 33% 30.17 in 10.0 mi West 13.8 mph 23.0 mph N/A   Overcast
4:53 PM 53.1 °F - 25.0 °F 34% 30.16 in 10.0 mi West 11.5 mph 20.7 mph N/A   Partly Cloudy
5:53 PM 48.9 °F - 26.1 °F 41% 30.20 in 10.0 mi WNW 3.5 mph - N/A   Partly Cloudy
6:53 PM 45.0 °F 41.2 °F 26.1 °F 48% 30.21 in 10.0 mi West 6.9 mph - N/A   Partly Cloudy
7:53 PM 44.1 °F 40.8 °F 27.0 °F 51% 30.24 in 10.0 mi SSW 5.8 mph - N/A   Clear
8:53 PM 44.1 °F 41.5 °F 26.1 °F 49% 30.23 in 10.0 mi SW 4.6 mph - N/A   Clear
9:53 PM 41.0 °F 36.4 °F 27.0 °F 57% 30.23 in 10.0 mi SSE 6.9 mph - N/A   Mostly Cloudy
10:53 PM 43.0 °F 38.8 °F 27.0 °F 53% 30.18 in 10.0 mi WSW 6.9 mph - N/A   Overcast
11:53 PM 37.9 °F 34.4 °F 27.0 °F 65% 30.19 in 10.0 mi WSW 4.6 mph - N/A   Scattered Clouds